Simultaneous Nadir Overpasses (SNOs) Predictions

Prediction of SNOs between AQUA and NOAA-19 Satellite Orbit:

Table of predicted SNOs for the next 14.0 days since TLE Epoch: 8/3/2012
Index Date (AQUA) Time (AQUA) AQUA Lat,Lon Date (NOAA-19) Time (NOAA-19) NOAA-19 Lat,Lon Distance(km) Time Diff (sec)
1 08/04/2012 22:40:18 47.33, 52.71 08/04/2012 22:40:40 47.31, 52.76 4.12 22
2 08/07/2012 02:35:31 -46.04, 173.51 08/07/2012 02:34:38 -45.97, 173.82 25.77 53
3 08/07/2012 03:23:57 49.44, -17.51 08/07/2012 03:24:42 49.45, -17.48 2.04 45
4 08/09/2012 07:19:46 -46.00, 102.43 08/09/2012 07:19:17 -45.98, 102.67 18.61 29
5 08/09/2012 08:07:40 51.29, -87.78 08/09/2012 08:08:49 51.29, -87.79 0.90 69
6 08/11/2012 12:04:00 -46.00, 31.37 08/11/2012 12:03:56 -45.99, 31.51 11.32 4
7 08/11/2012 12:41:20
